Regional Weather Roundup
Issued by NWS

Home | Current Version | Previous Version | Text Only | Print | Product List | Glossary Off
Versions: 1 2 3 4 5 6 7 8 9 10 11 12 13 14 15 16 17 18 19 20 21 22 23 24 25 26 27 28 29 30 31 32 33 34 35 36 37 38 39 40 41 42 43 44 45 46 47 48 49 50

811
ASUS43 KBIS 261602
RWRND

NORTH DAKOTA REGIONAL WEATHER ROUNDUP
NATIONAL WEATHER SERVICE BISMARCK ND
1100 AM CDT TUE JUL 26 2016

NOTE: "FAIR" INDICATES FEW OR NO CLOUDS BELOW 12,000 FEET WITH NO
SIGNIFICANT WEATHER AND/OR OBSTRUCTIONS TO VISIBILITY.


NDZ001>003-009>011-017-261700-
NORTHWEST NORTH DAKOTA

CITY           SKY/WX    TMP DP  RH WIND       PRES   REMARKS
WILLISTON      CLOUDY    72  62  71 CALM      30.07S
MINOT          CLOUDY    80  67  64 N8        30.02F
MINOT AFB      CLOUDY    75  65  71 N9        30.02S
$$

NDZ018>021-031>035-040>046-261700-
SOUTHWEST NORTH DAKOTA

CITY           SKY/WX    TMP DP  RH WIND       PRES   REMARKS
BISMARCK       CLOUDY    76  67  73 CALM      30.01R
DICKINSON      LGT RAIN  64  61  90 NW7       30.04F
GARRISON         N/A     76  66  71 NW5       30.05R
HETTINGER ARPT CLOUDY    67  58  72 N16G30    30.00F
$$

NDZ004>008-012>016-024-026-027-054-261700-
NORTHEAST NORTH DAKOTA

CITY           SKY/WX    TMP DP  RH WIND       PRES   REMARKS
GRAND FORKS    CLOUDY    82  65  56 NE9       29.96F
GRND FRKS AFB  SUNNY     80  65  59 NE3       29.98F
DEVILS LAKE    SUNNY     79  64  60 E12       30.01F
$$

NDZ022-023-025-028>030-036>039-047>053-261700-
SOUTHEAST NORTH DAKOTA

CITY           SKY/WX    TMP DP  RH WIND       PRES   REMARKS
FARGO          CLOUDY    75  66  73 W8        29.96R
JAMESTOWN      SUNNY     79  70  74 E6        29.98S
$$





USA.gov is the U.S. government's official web portal to all federal, state and local government web resources and services.